Weather History for KFIG - June, 2013

Change the Weather History Date:

Wednesday, June 19, 2013

  Actual Average (KDUJ) Record (KDUJ)
Temperature  
Mean Temperature 60 °F 66 °F  
Max Temperature 73 °F 76 °F 87 °F (2001)
Min Temperature 48 °F 55 °F 43 °F (2008)
Degree Days  
Heating Degree Days 4 2  
Month to date heating degree days 69  
Since 1 June heating degree days 69  
Since 1 July heating degree days 6871  
Cooling Degree Days 0 3  
Month to date cooling degree days 34  
Year to date cooling degree days 57  
Since 1 June cooling degree days 34  
Growing Degree Days 10 (Base 50)    
Moisture  
Dew Point 47 °F    
Average Humidity 63    
Maximum Humidity 92    
Minimum Humidity 34    
Precipitation  
Precipitation 0.00 in 0.17 in 0.88 in (2007)
Month to date precipitation 3.07  
Sea Level Pressure  
Sea Level Pressure 30.09 in    
Wind  
Wind Speed 4 mph (NNE)    
Max Wind Speed 9 mph    
Max Gust Speed -    
Visibility 10 miles    
Events      
T = Trace of Precipitation, MM = Missing Value Source: NWS Daily Summary

Daily Weather History Graph

Daily Weather History Graph

Search for Another Location

Airport or City:

Trip Planner

Search our weather history database for the weather conditions in past years. The results will help you decide how hot, cold, wet, or windy it might be!

Date:

Astronomy

Jun. 19, 2013 Rise Set
Actual Time 5:41 AM EDT 8:49 PM EDT
Civil Twilight 5:07 AM EDT 9:22 PM EDT
Nautical Twilight 4:24 AM EDT 10:05 PM EDT
Astronomical Twilight 3:33 AM EDT 10:57 PM EDT
Moon 4:38 PM EDT (6/19) 2:26 AM EDT (6/19)
Length of Visible Light 16h 15m
Length of Day
15h 07m
Waxing Gibbous, 80% of the Moon is Illuminated
Jun 19
Waxing Gibbous
Jun 23
Full
Jun 30
Last Quarter
Jul 8
New
Jul 15
First Quarter

Hourly Weather History & Observations

Time (EDT) Temp. Dew Point Humidity Pressure Visibility Wind Dir Wind Speed Gust Speed Precip Events Conditions
12:30 AM 57.2 °F 53.6 °F 88% 30.01 in 10.0 mi NE 3.5 mph - N/A   Mostly Cloudy
12:54 AM 55.9 °F 52.0 °F 87% 29.99 in 10.0 mi North 3.5 mph - N/A   Scattered Clouds
1:54 AM 55.0 °F 48.9 °F 80% 30.00 in 10.0 mi NNE 5.8 mph - N/A   Clear
2:54 AM 51.1 °F 48.9 °F 92% 30.01 in 10.0 mi North 3.5 mph - N/A   Clear
3:54 AM 50.0 °F 46.9 °F 89% 30.01 in 10.0 mi Calm Calm - N/A   Clear
4:54 AM 48.9 °F 46.0 °F 90% 30.02 in 10.0 mi NNE 3.5 mph - N/A   Clear
5:54 AM 48.0 °F 45.0 °F 89% 30.04 in 10.0 mi Calm Calm - N/A   Partly Cloudy
6:54 AM 52.0 °F 46.0 °F 80% 30.06 in 10.0 mi Calm Calm - N/A   Clear
7:54 AM 55.9 °F 46.9 °F 72% 30.09 in 10.0 mi NNE 3.5 mph - N/A   Clear
8:54 AM 59.0 °F 46.9 °F 64% 30.11 in 10.0 mi NE 3.5 mph - N/A   Clear
9:54 AM 63.0 °F 48.0 °F 58% 30.12 in 10.0 mi ENE 6.9 mph - N/A   Clear
10:54 AM 64.9 °F 45.0 °F 48% 30.13 in 10.0 mi ENE 8.1 mph - N/A   Partly Cloudy
11:54 AM 68.0 °F 44.1 °F 42% 30.14 in 10.0 mi Variable 3.5 mph - N/A   Clear
12:54 PM 69.1 °F 41.0 °F 36% 30.13 in 10.0 mi Variable 4.6 mph - N/A   Clear
1:54 PM 71.1 °F 45.0 °F 39% 30.12 in 10.0 mi ENE 5.8 mph - N/A   Clear
2:54 PM 71.1 °F 45.0 °F 39% 30.12 in 10.0 mi Variable 3.5 mph - N/A   Scattered Clouds
3:54 PM 72.0 °F 45.0 °F 38% 30.12 in 10.0 mi ENE 5.8 mph - N/A   Partly Cloudy
4:54 PM 73.0 °F 43.0 °F 34% 30.10 in 10.0 mi Variable 3.5 mph - N/A   Clear
5:54 PM 72.0 °F 44.1 °F 37% 30.10 in 10.0 mi Calm Calm - N/A   Clear
6:54 PM 72.0 °F 44.1 °F 37% 30.10 in 10.0 mi ESE 3.5 mph - N/A   Clear
7:54 PM 70.0 °F 44.1 °F 39% 30.12 in 10.0 mi Calm Calm - N/A   Clear
8:54 PM 62.1 °F 50.0 °F 65% 30.13 in 10.0 mi North 4.6 mph - N/A   Clear
9:54 PM 57.0 °F 48.9 °F 74% 30.15 in 10.0 mi North 9.2 mph - N/A   Clear
10:54 PM 54.0 °F 48.0 °F 80% 30.17 in 10.0 mi NNW 6.9 mph - N/A   Clear
11:54 PM 52.0 °F 46.9 °F 83% 30.19 in 10.0 mi NNW 5.8 mph - N/A   Clear